sat.trackr.live / text

‹ back to catalog

STARLINK-30154

NORAD 57495 · 2023-113A

PAYLOAD ACTIVE UNKNOWN

§ Identity

Operator
Country
US
Launch date
2023-08-07
Launch site
AFETR
Launch vehicle
Mass (kg)
RCS (m²)

Purposes: comms

External: N2YO · Heavens-Above · Gunter

§ Orbital elements

Epoch: 2026-09-20T07:43:35.401728Z

Period
94.27 min
Inclination
43.0047°
Eccentricity
0.0001864
Mean motion
15.27583012 rev/d
Perigee alt
481.8 km
Apogee alt
484.3 km
Semi-major
6,861.2 km
B*
-1.0644e-5
RAAN
356.7109°
Arg perigee
272.1253°
Mean anomaly
87.9385°
Rev number
17,328

§ Raw data

STARLINK-301541 57495U 23113A   26263.32193752 -.00000555  00000+0 -10644-4 0  99962 57495  43.0047 356.7109 0001864 272.1253  87.9385 15.27583012173287

JSON: /api/v1/satellites/57495 · /tle

For live sub-satellite position, see the globe view (requires WebGL).

§ Visibility from observer

Set your observer location to see the next 7 days of passes ≥ 10°. The values pass through the URL so the page stays shareable.

No JS? Fill the form by hand. The geolocation button needs JavaScript.